Terminal Aerodrome Forecast
Issued by NWS Lake Charles, LA

Home | Current Version | Previous Version | Text Only | Print | Product List | Glossary On
Versions: 1 2 3 4 5 6 7 8 9 10 11 12 13 14 15
000
FTUS44 KLCH 230800 AAA
TAFARA
TAF AMD
KARA 230807Z 2308/2406 VRB02KT P6SM SKC
      TEMPO 2308/2312 4SM BR
     FM231800 23005KT P6SM FEW050=

USA.gov is the U.S. government's official web portal to all federal, state and local government web resources and services.